When you browse on this site, cookies collect data to enhance your experience and personalize the content and advertising you see.
Visit our Privacy Policy to learn more. By continuing to use the site, you agree to this use of cookies and data.
  • Em Portugal
  • Lista de países
  • Para 7 dias
  • Temperatura da água
  • Mapas de satélite
  • Mapa do tempo
  • Widgets de tempo
  • user-avatar
    Iniciar Sessão

    Previsão horária em Bansko

    Hoje, 27 Maio, Segunda-feira

    Tempo Temperatura Precipitação Vento Pressão Humidade
    00:00 +16°C° 0 mm 1 m/s 721 mmHg 85%
    01:00 +16°C° 0 mm 1 m/s 720 mmHg 86%
    02:00 +16°C° 0 mm 2 m/s 720 mmHg 86%
    03:00 +16°C° 0 mm 2 m/s 720 mmHg 85%
    04:00 +16°C° 0 mm 1 m/s 720 mmHg 85%
    05:00 +15°C° 0 mm 1 m/s 720 mmHg 84%
    06:00 +19°C° 0 mm 1 m/s 720 mmHg 76%
    07:00 +21°C° 0 mm 1 m/s 720 mmHg 68%
    08:00 +23°C° 0 mm 2 m/s 721 mmHg 60%
    09:00 +24°C° 0 mm 2 m/s 721 mmHg 55%
    10:00 +26°C° 0 mm 3 m/s 721 mmHg 50%
    11:00 +27°C° 0 mm 4 m/s 721 mmHg 45%
    12:00 +25°C° 0.2 mm 3 m/s 720 mmHg 53%
    13:00 +24°C° 0.2 mm 3 m/s 720 mmHg 61%
    14:00 +22°C° 0.2 mm 3 m/s 720 mmHg 69%
    15:00 +22°C° 0 mm 3 m/s 719 mmHg 64%
    16:00 +24°C° 0 mm 3 m/s 719 mmHg 60%
    17:00 +25°C° 0 mm 4 m/s 719 mmHg 55%
    18:00 +22°C° 0 mm 3 m/s 719 mmHg 62%
    19:00 +20°C° 0 mm 3 m/s 718 mmHg 69%
    20:00 +18°C° 0 mm 2 m/s 718 mmHg 76%
    21:00 +17°C° 0 mm 2 m/s 718 mmHg 77%
    22:00 +17°C° 0 mm 2 m/s 718 mmHg 77%
    23:00 +16°C° 0 mm 2 m/s 718 mmHg 78%

    Amanhã, 28 Maio, Terça-feira

    Tempo Temperatura Precipitação Vento Pressão Humidade
    00:00 +16°C° 0 mm 2 m/s 718 mmHg 76%
    01:00 +15°C° 0 mm 2 m/s 718 mmHg 74%
    02:00 +15°C° 0 mm 2 m/s 718 mmHg 72%
    03:00 +15°C° 0 mm 2 m/s 717 mmHg 70%
    04:00 +15°C° 0 mm 2 m/s 717 mmHg 68%
    05:00 +15°C° 0 mm 2 m/s 717 mmHg 67%
    06:00 +17°C° 0 mm 2 m/s 717 mmHg 61%
    07:00 +19°C° 0 mm 3 m/s 717 mmHg 55%
    08:00 +22°C° 0 mm 3 m/s 717 mmHg 50%
    09:00 +24°C° 0 mm 3 m/s 717 mmHg 47%
    10:00 +25°C° 0 mm 4 m/s 717 mmHg 45%
    11:00 +26°C° 0 mm 5 m/s 717 mmHg 42%
    12:00 +27°C° 0 mm 5 m/s 716 mmHg 42%
    13:00 +27°C° 0 mm 5 m/s 716 mmHg 41%
    14:00 +27°C° 0 mm 5 m/s 716 mmHg 41%
    15:00 +27°C° 0 mm 4 m/s 716 mmHg 43%
    16:00 +26°C° 0 mm 4 m/s 715 mmHg 46%
    17:00 +26°C° 0 mm 4 m/s 715 mmHg 49%
    18:00 +24°C° 0.1 mm 3 m/s 715 mmHg 58%
    19:00 +20°C° 0.1 mm 3 m/s 715 mmHg 67%
    20:00 +18°C° 0.1 mm 2 m/s 715 mmHg 77%
    21:00 +17°C° 0 mm 2 m/s 715 mmHg 78%
    22:00 +17°C° 0 mm 2 m/s 716 mmHg 80%
    23:00 +16°C° 0 mm 2 m/s 716 mmHg 82%

    Depois de amanhã, 29 Maio, Quarta-feira

    Tempo Temperatura Precipitação Vento Pressão Humidade
    00:00 +16°C° 0 mm 2 m/s 716 mmHg 83%
    01:00 +15°C° 0 mm 1 m/s 716 mmHg 84%
    02:00 +15°C° 0 mm 1 m/s 716 mmHg 85%
    03:00 +15°C° 0 mm 1 m/s 716 mmHg 86%
    04:00 +14°C° 0 mm 1 m/s 717 mmHg 87%
    05:00 +14°C° 0 mm 1 m/s 717 mmHg 88%
    06:00 +16°C° 0 mm 1 m/s 717 mmHg 80%
    07:00 +20°C° 0 mm 1 m/s 717 mmHg 71%
    08:00 +22°C° 0 mm 1 m/s 718 mmHg 62%
    09:00 +23°C° 0 mm 2 m/s 718 mmHg 57%
    10:00 +24°C° 0 mm 2 m/s 718 mmHg 52%
    11:00 +26°C° 0 mm 3 m/s 718 mmHg 47%
    12:00 +26°C° 0.1 mm 3 m/s 718 mmHg 47%
    13:00 +27°C° 0.1 mm 3 m/s 718 mmHg 46%
    14:00 +27°C° 0.1 mm 3 m/s 718 mmHg 46%
    15:00 +27°C° 0.1 mm 3 m/s 718 mmHg 48%
    16:00 +26°C° 0.1 mm 3 m/s 717 mmHg 49%
    17:00 +26°C° 0.1 mm 3 m/s 717 mmHg 50%
    18:00 +24°C° 0.1 mm 2 m/s 717 mmHg 58%
    19:00 +21°C° 0.1 mm 2 m/s 717 mmHg 65%
    20:00 +20°C° 0.1 mm 1 m/s 718 mmHg 72%
    21:00 +20°C° 0 mm 1 m/s 718 mmHg 74%
    22:00 +19°C° 0 mm 1 m/s 718 mmHg 75%
    23:00 +19°C° 0 mm 1 m/s 719 mmHg 76%

    30 Maio, Quinta-feira

    Tempo Temperatura Precipitação Vento Pressão Humidade
    00:00 +18°C° 0 mm 1 m/s 719 mmHg 79%
    01:00 +18°C° 0 mm 1 m/s 719 mmHg 81%
    02:00 +16°C° 0 mm 1 m/s 719 mmHg 83%
    03:00 +16°C° 0 mm 1 m/s 718 mmHg 85%
    04:00 +14°C° 0 mm 0 m/s 718 mmHg 86%
    05:00 +14°C° 0 mm 0 m/s 718 mmHg 87%
    06:00 +18°C° 0 mm 1 m/s 719 mmHg 80%
    07:00 +20°C° 0 mm 1 m/s 719 mmHg 73%
    08:00 +22°C° 0 mm 1 m/s 719 mmHg 67%
    09:00 +23°C° 0.2 mm 1 m/s 719 mmHg 62%
    10:00 +24°C° 0.2 mm 1 m/s 719 mmHg 57%
    11:00 +25°C° 0.2 mm 1 m/s 720 mmHg 51%
    12:00 +26°C° 0.1 mm 1 m/s 719 mmHg 49%
    13:00 +26°C° 0.1 mm 2 m/s 719 mmHg 47%
    14:00 +27°C° 0.1 mm 2 m/s 719 mmHg 45%
    15:00 +26°C° 0.1 mm 2 m/s 719 mmHg 47%
    16:00 +25°C° 0.1 mm 2 m/s 718 mmHg 49%
    17:00 +25°C° 0.1 mm 2 m/s 718 mmHg 51%
    18:00 +23°C° 0.2 mm 2 m/s 718 mmHg 60%
    19:00 +21°C° 0.2 mm 1 m/s 718 mmHg 69%
    20:00 +19°C° 0.2 mm 1 m/s 718 mmHg 78%
    21:00 +18°C° 0.2 mm 1 m/s 718 mmHg 82%
    22:00 +16°C° 0.2 mm 1 m/s 719 mmHg 85%
    23:00 +15°C° 0.2 mm 1 m/s 719 mmHg 88%

    31 Maio, Sexta-feira

    Tempo Temperatura Precipitação Vento Pressão Humidade
    00:00 +14°C° 0.1 mm 1 m/s 719 mmHg 90%
    01:00 +14°C° 0.1 mm 1 m/s 719 mmHg 91%
    02:00 +14°C° 0.1 mm 2 m/s 718 mmHg 93%
    03:00 +14°C° 0.1 mm 1 m/s 718 mmHg 94%
    04:00 +13°C° 0.1 mm 1 m/s 718 mmHg 94%
    05:00 +13°C° 0.1 mm 1 m/s 718 mmHg 95%
    06:00 +15°C° 0.1 mm 2 m/s 718 mmHg 88%
    07:00 +16°C° 0.1 mm 2 m/s 718 mmHg 81%
    08:00 +18°C° 0.1 mm 2 m/s 719 mmHg 75%
    09:00 +19°C° 0.4 mm 2 m/s 719 mmHg 69%
    10:00 +20°C° 0.4 mm 2 m/s 719 mmHg 64%
    11:00 +23°C° 0.4 mm 2 m/s 719 mmHg 58%
    12:00 +23°C° 0.9 mm 2 m/s 718 mmHg 58%
    13:00 +23°C° 0.9 mm 2 m/s 718 mmHg 57%
    14:00 +23°C° 0.9 mm 2 m/s 718 mmHg 56%
    15:00 +23°C° 0.7 mm 2 m/s 718 mmHg 58%
    16:00 +21°C° 0.7 mm 3 m/s 718 mmHg 60%
    17:00 +21°C° 0.7 mm 3 m/s 718 mmHg 62%
    18:00 +19°C° 0.2 mm 3 m/s 718 mmHg 69%
    19:00 +17°C° 0.2 mm 2 m/s 718 mmHg 77%
    20:00 +15°C° 0.2 mm 2 m/s 718 mmHg 84%
    21:00 +15°C° 0 mm 2 m/s 718 mmHg 86%
    22:00 +14°C° 0 mm 2 m/s 718 mmHg 89%
    23:00 +13°C° 0 mm 1 m/s 718 mmHg 91%

    1 Junho, Sábado

    Tempo Temperatura Precipitação Vento Pressão Humidade
    00:00 +12°C° 0 mm 1 m/s 717 mmHg 91%
    01:00 +12°C° 0 mm 1 m/s 717 mmHg 91%
    02:00 +12°C° 0 mm 1 m/s 717 mmHg 91%
    03:00 +12°C° 0 mm 1 m/s 717 mmHg 91%
    04:00 +12°C° 0 mm 1 m/s 717 mmHg 91%
    05:00 +11°C° 0 mm 1 m/s 717 mmHg 91%
    06:00 +14°C° 0 mm 1 m/s 717 mmHg 84%
    07:00 +16°C° 0 mm 2 m/s 717 mmHg 77%
    08:00 +18°C° 0 mm 2 m/s 717 mmHg 70%
    09:00 +19°C° 0 mm 2 m/s 717 mmHg 65%
    10:00 +20°C° 0 mm 2 m/s 717 mmHg 60%
    11:00 +21°C° 0 mm 2 m/s 717 mmHg 55%
    12:00 +23°C° 0.4 mm 2 m/s 717 mmHg 55%
    13:00 +23°C° 0.4 mm 2 m/s 717 mmHg 55%
    14:00 +23°C° 0.4 mm 2 m/s 717 mmHg 56%
    15:00 +21°C° 1 mm 2 m/s 716 mmHg 59%
    16:00 +21°C° 1 mm 2 m/s 716 mmHg 63%
    17:00 +20°C° 1 mm 2 m/s 716 mmHg 66%
    18:00 +19°C° 0.9 mm 2 m/s 716 mmHg 72%
    19:00 +17°C° 0.9 mm 2 m/s 717 mmHg 78%
    20:00 +16°C° 0.9 mm 2 m/s 717 mmHg 83%
    21:00 +15°C° 0.3 mm 2 m/s 717 mmHg 86%
    22:00 +14°C° 0.3 mm 2 m/s 717 mmHg 88%
    23:00 +14°C° 0.3 mm 2 m/s 717 mmHg 90%
    Mostrar mais